DJ3OW-13 Weather Reports


Display with metric or nautical units.
time (UTC)temp
F
wind
direction
speed
MPH
gust
MPH
rain 1hr
in
rain 24hr
in
rain mn
in
humidity
%
barometer
mb
20260502222016 57 0.0 2.0 0.00 0.00 0.00 72 1017.5
20260502221114 57 0.0 0.0 0.00 0.00 0.00 72 1017.6
20260502220112 57 0.0 0.0 0.00 0.00 0.00 72 1017.7
20260502215110 58 68 0.0 2.0 0.00 0.00 0.00 68 1017.7
20260502214108 59 90 0.0 2.0 0.00 0.00 0.00 69 1017.8
20260502213106 60 0.0 2.0 0.00 0.00 0.00 66 1018.0
20260502212104 60 0.0 2.0 0.00 0.00 0.00 67 1017.9
20260502211102 60 0.0 2.0 0.00 0.00 0.00 67 1017.9
20260502210100 60 68 0.0 2.0 0.00 0.00 0.00 67 1018.0
20260502205058 61 0.0 2.0 0.00 0.00 0.00 66 1018.0
20260502204056 61 0.0 2.0 0.00 0.00 0.00 65 1018.1
20260502203054 60 338 0.0 2.0 0.00 0.00 0.00 67 1018.0
20260502202052 60 0.0 0.0 0.00 0.00 0.00 69 1018.1
20260502201050 61 0.0 0.0 0.00 0.00 0.00 67 1018.1
20260502200048 61 0.0 0.0 0.00 0.00 0.00 66 1018.1
20260502195045 62 0.0 0.0 0.00 0.00 0.00 65 1018.2
20260502194043 63 0.0 0.0 0.00 0.00 0.00 62 1018.3
20260502193042 64 0.0 0.0 0.00 0.00 0.00 61 1018.2
20260502192039 65 0.0 0.0 0.00 0.00 0.00 59 1018.3
20260502191038 66 270 0.0 2.0 0.00 0.00 0.00 60 1018.3
20260502190115 68 270 0.0 2.0 0.00 0.00 0.00 52 1018.3
20260502185033 69 0.0 0.0 0.00 0.00 0.00 51 1018.2
20260502184052 70 0.0 2.0 0.00 0.00 0.00 49 1018.4
20260502183049 71 0.0 0.0 0.00 0.00 0.00 46 1018.3
20260502182028 73 0.0 0.0 0.00 0.00 0.00 44 1018.5
20260502181026 74 0.0 0.0 0.00 0.00 0.00 42 1018.5
20260502170111 78 0.0 0.0 0.00 0.00 0.00 33 1019.1
20260502164107 78 260 1.0 2.0 0.00 0.00 0.00 32 1019.2
20260502163105 79 270 0.0 2.0 0.00 0.00 0.00 31 1019.3
20260502162103 80 198 1.0 2.0 0.00 0.00 0.00 32 1019.5
20260502161101 80 270 0.0 4.0 0.00 0.00 0.00 31 1019.7
20260502160119 80 293 0.0 2.0 0.00 0.00 0.00 31 1019.7
20260502152051 80 278 2.0 4.0 0.00 0.00 0.00 29 1020.1
20260502151049 81 357 1.0 4.0 0.00 0.00 0.00 28 1020.2
20260502150107 81 264 1.0 4.0 0.00 0.00 0.00 30 1020.2
20260502123017 78 89 2.0 6.0 0.00 0.00 0.00 35 1021.8
20260502122015 78 293 2.0 8.0 0.00 0.00 0.00 38 1021.9
20260502121113 78 201 2.0 4.0 0.00 0.00 0.00 38 1022.0
20260502120111 77 322 2.0 6.0 0.00 0.00 0.00 38 1022.1
20260502115129 77 73 1.0 6.0 0.00 0.00 0.00 39 1022.3
20260502114107 76 9 2.0 6.0 0.00 0.00 0.00 39 1022.5
20260502113105 75 312 3.0 6.0 0.00 0.00 0.00 40 1022.6
20260502112103 75 303 2.0 11.0 0.00 0.00 0.00 40 1022.8
20260502111101 75 227 2.0 4.0 0.00 0.00 0.00 42 1022.9
20260502110059 75 191 2.0 8.0 0.00 0.00 0.00 41 1023.1
20260502105057 74 188 1.0 4.0 0.00 0.00 0.00 42 1023.1
20260502104055 74 174 2.0 4.0 0.00 0.00 0.00 42 1023.0
20260502103053 73 151 2.0 6.0 0.00 0.00 0.00 44 1023.2
20260502102050 72 209 2.0 6.0 0.00 0.00 0.00 43 1023.3
20260502101048 72 123 1.0 4.0 0.00 0.00 0.00 44 1023.6
20260502091037 69 227 3.0 7.0 0.00 0.00 0.00 46 1024.0
20260502071112 59 193 1.0 4.0 0.00 0.00 0.00 64 1024.2
20260502070110 58 180 1.0 4.0 0.00 0.00 0.00 65 1024.3
20260502065108 57 173 1.0 2.0 0.00 0.00 0.00 66 1024.4
20260502064106 57 171 1.0 4.0 0.00 0.00 0.00 67 1024.2
20260502063104 56 158 1.0 2.0 0.00 0.00 0.00 69 1024.3
20260502062102 55 158 0.0 2.0 0.00 0.00 0.00 70 1024.4
20260502061100 54 158 0.0 2.0 0.00 0.00 0.00 71 1024.3
20260502060058 53 158 0.0 2.0 0.00 0.00 0.00 73 1024.3
20260502055056 52 158 0.0 2.0 0.00 0.00 0.00 74 1024.4
20260502054054 52 158 0.0 2.0 0.00 0.00 0.00 74 1024.4
20260502053052 51 158 1.0 2.0 0.00 0.00 0.00 74 1024.4
20260502052050 51 158 1.0 2.0 0.00 0.00 0.00 75 1024.4
20260502051048 50 158 1.0 2.0 0.00 0.00 0.00 75 1024.3
20260502050046 50 149 2.0 4.0 0.00 0.00 0.00 75 1024.3
20260502045044 50 158 1.0 4.0 0.00 0.00 0.00 75 1024.4
20260502044042 50 151 2.0 4.0 0.00 0.00 0.00 74 1024.4
20260502043040 50 146 2.0 4.0 0.00 0.00 0.00 75 1024.3
20260502042038 50 135 2.0 4.0 0.00 0.00 0.00 75 1024.4
20260502041036 50 149 1.0 2.0 0.00 0.00 0.00 74 1024.3
20260502040034 50 138 2.0 4.0 0.00 0.00 0.00 74 1024.5
20260502035032 50 158 1.0 2.0 0.00 0.00 0.00 74 1024.5
20260502034030 50 151 1.0 2.0 0.00 0.00 0.00 75 1024.7
20260502033028 50 158 1.0 2.0 0.00 0.00 0.00 74 1024.6
20260502032046 50 154 2.0 2.0 0.00 0.00 0.00 74 1024.7
20260502031024 51 153 1.0 2.0 0.00 0.00 0.00 73 1024.7
20260502030022 51 158 1.0 2.0 0.00 0.00 0.00 73 1024.8
20260502025020 51 158 1.0 2.0 0.00 0.00 0.00 73 1024.9
20260502024038 51 158 1.0 2.0 0.00 0.00 0.00 72 1024.9
20260502023016 52 158 1.0 2.0 0.00 0.00 0.00 71 1025.0
20260502022114 52 142 2.0 4.0 0.00 0.00 0.00 71 1025.0
20260502021112 52 142 2.0 2.0 0.00 0.00 0.00 70 1025.1
20260502020110 53 135 1.0 2.0 0.00 0.00 0.00 70 1025.2
20260502015108 52 149 1.0 2.0 0.00 0.00 0.00 70 1025.3
20260502014106 52 152 1.0 2.0 0.00 0.00 0.00 70 1025.4
20260502013104 52 158 1.0 2.0 0.00 0.00 0.00 70 1025.5
20260502012102 53 158 1.0 2.0 0.00 0.00 0.00 70 1025.5
20260502011100 53 158 0.0 2.0 0.00 0.00 0.00 70 1025.7
20260502010058 53 158 1.0 2.0 0.00 0.00 0.00 69 1025.6
20260502005056 54 158 0.0 2.0 0.00 0.00 0.00 68 1025.9
20260502004114 54 158 0.0 2.0 0.00 0.00 0.00 67 1026.0
20260502003052 53 158 1.0 2.0 0.00 0.00 0.00 69 1025.8
20260502002050 53 158 0.0 2.0 0.00 0.00 0.00 69 1026.0
20260502001108 54 158 1.0 2.0 0.00 0.00 0.00 67 1025.9
20260502000106 54 158 1.0 2.0 0.00 0.00 0.00 67 1026.0
20260501235104 54 0.0 2.0 0.00 0.00 0.00 67 1025.9
20260501234041 55 0.0 2.0 0.00 0.00 0.00 67 1026.1
20260501233039 55 135 0.0 2.0 0.00 0.00 0.00 66 1026.2
20260501232037 55 135 0.0 2.0 0.00 0.00 0.00 67 1026.4
20260501231035 56 90 2.0 2.0 0.00 0.00 0.00 65 1027.0
20260501230053 56 90 1.0 4.0 0.00 0.00 0.00 65 1026.4
20260501225032 56 90 1.0 2.0 0.00 0.00 0.00 64 1026.5
20260501224029 56 0 1.0 2.0 0.00 0.00 0.00 65 1026.6
20260501223027 56 23 0.0 2.0 0.00 0.00 0.00 65 1026.6